Theta_e
333 335 335 334 334 335 334 333 331 330 331 332 332 331 330 330 329 329 328 328 327 326 326 325 325 327 313 299 302 310 335 329 312 308 306 304 299 298 295 296 297 296 298 302 304 302 300
331 331 331 331 331 333 334 334 333 331 331 331 332 331 330 330 329 328 328 328 327 326 326 325 326 326 306 294 305 309 310 307 309 306 305 303 299 300 297 296 294 296 297 297 299 299 297
329 329 329 330 329 329 329 331 332 332 332 331 331 330 330 329 328 327 327 327 327 326 325 325 326 322 303 299 307 306 309 306 307 307 304 304 303 299 299 296 299 296 292 294 294 295 295
325 326 326 326 327 328 328 328 328 329 329 330 330 329 328 327 327 327 327 326 326 325 325 325 325 311 297 307 307 306 307 307 308 307 306 305 304 302 299 298 297 292 290 287 293 295 295
322 322 323 324 324 325 325 326 326 325 325 327 327 327 327 327 326 326 326 325 325 325 324 325 310 300 298 314 302 306 306 305 306 305 305 309 304 298 297 291 290 290 286 287 292 296 295
320 320 320 321 322 322 322 322 322 324 324 324 324 323 324 325 325 325 324 323 323 320 320 319 313 297 299 299 303 304 303 306 303 302 301 301 296 293 291 289 285 285 284 286 287 292 293
318 318 318 319 319 320 320 319 319 321 321 322 323 322 321 323 324 324 317 307 304 300 305 298 298 297 299 303 303 300 304 303 302 298 291 294 292 287 291 292 291 289 286 286 288 292 291
318 317 317 318 318 317 317 317 318 319 320 320 321 321 321 321 322 321 310 304 304 305 298 306 306 306 307 304 298 299 303 297 295 290 291 290 288 294 295 293 292 289 286 286 289 292 290
317 318 317 317 317 317 316 316 317 317 318 318 319 319 320 320 320 315 308 308 311 308 297 301 306 303 303 306 300 297 302 297 293 290 290 287 291 296 294 291 290 288 286 286 286 290 288
315 316 317 316 316 316 316 316 316 316 317 317 318 318 319 319 315 313 306 315 315 308 287 291 299 302 301 302 297 302 302 298 293 291 291 289 293 292 292 290 290 285 290 290 289 286 281
317 315 316 316 316 315 316 316 316 316 317 317 316 316 317 318 311 309 312 317 313 300 279 295 298 303 300 297 296 297 301 298 292 291 290 289 290 290 290 291 292 289 292 289 289 285 284
315 316 316 315 315 315 315 316 315 316 316 317 316 315 316 313 312 313 317 314 303 285 279 292 296 295 295 296 295 298 296 299 297 293 290 291 293 294 293 293 292 293 289 288 288 285 280
313 315 315 315 315 315 315 315 315 315 316 316 315 314 314 316 307 317 316 300 285 281 291 290 291 294 292 292 293 293 291 289 289 284 282 287 289 291 294 290 291 289 284 279 279 281 279
312 313 314 314 315 315 315 315 315 314 314 315 314 313 311 316 314 314 305 292 278 287 288 294 293 292 289 292 291 291 288 287 289 287 284 283 282 289 291 290 287 285 285 279 277 279 283
311 311 312 314 314 315 314 314 314 314 315 314 311 302 303 308 311 311 296 283 283 286 293 292 292 287 287 291 289 288 287 287 289 290 286 282 284 289 291 290 291 286 284 286 284 281 280
310 310 311 311 313 313 314 313 314 314 315 313 303 300 300 307 307 305 292 287 288 295 296 294 287 289 285 287 287 286 287 290 291 292 290 286 283 287 289 290 289 288 290 284 282 277 276
310 310 310 310 312 312 313 313 313 313 314 311 298 292 299 307 307 301 287 287 292 297 300 292 290 288 288 287 288 286 288 291 293 291 291 288 286 283 287 286 286 286 285 285 284 282 278
310 310 310 310 311 312 312 312 313 313 311 303 293 284 298 309 297 294 290 293 299 298 300 299 293 292 289 291 287 286 288 290 294 293 289 290 286 282 286 287 289 287 287 287 282 280 281
309 309 310 310 311 311 311 311 312 312 309 296 289 289 298 304 292 287 293 296 298 297 297 297 296 296 296 293 290 289 290 295 295 292 289 290 285 281 284 285 286 285 286 287 286 284 280
308 308 309 309 310 310 310 311 311 311 311 298 288 283 291 294 296 294 293 293 294 299 298 298 298 299 296 293 294 292 290 295 296 294 304 296 285 284 282 283 286 283 285 286 286 280 281
307 308 308 309 309 310 310 310 310 311 311 298 289 284 288 283 291 290 288 291 290 291 297 297 295 294 293 291 291 289 291 293 294 299 293 291 285 285 286 287 288 288 287 286 284 287 283
307 307 308 308 308 309 310 310 310 310 308 296 289 286 288 285 287 285 290 287 289 290 292 291 292 291 292 291 293 291 291 292 290 291 290 289 285 285 284 289 287 286 289 289 288 288 288
307 307 307 307 307 308 309 309 309 309 305 294 294 294 291 287 284 282 283 287 289 290 291 294 291 289 290 293 294 294 295 295 296 294 292 287 285 283 280 286 286 285 289 290 291 291 290
306 307 307 307 307 308 308 308 308 309 305 296 295 292 288 284 286 285 287 287 286 287 287 291 292 289 292 295 294 296 295 296 297 296 297 289 285 284 281 283 279 287 290 290 291 292 293
306 306 306 306 306 308 308 307 307 308 307 297 296 294 291 285 287 286 287 287 288 290 288 289 291 293 294 292 288 285 286 289 292 296 296 295 291 282 282 280 288 291 293 290 288 289 292
305 306 306 306 306 307 307 306 306 307 308 298 296 297 295 289 286 289 286 286 284 283 284 287 291 291 291 290 286 280 280 284 284 288 295 294 294 290 285 278 280 286 292 297 293 285 295
305 305 305 306 306 306 306 306 306 307 307 299 296 299 294 289 292 290 286 286 289 285 282 286 288 288 290 282 281 278 278 286 282 283 284 288 288 286 287 286 288 292 295 294 284 288 293
304 305 305 305 305 306 306 306 306 307 307 301 298 299 295 291 291 293 293 288 287 287 283 285 285 285 283 280 280 279 280 284 284 286 286 286 286 285 285 285 283 291 292 290 291 296 296
304 304 305 305 305 305 306 306 306 306 307 305 296 298 300 293 292 294 295 296 294 293 289 287 286 285 287 281 282 285 281 284 282 278 287 283 287 283 285 287 291 292 290 294 295 292 293
Wind_Speed
14 12 2 6 8 8 8 7 8 10 10 11 12 13 14 15 16 17 18 18 19 19 17 17 15 15 5 4 8 4 2 1 3 2 2 2 3 1 2 4 3 1 2 2 1 2 3
13 14 14 13 13 13 9 9 8 9 10 11 12 13 15 15 17 18 19 20 20 19 16 16 14 12 0 3 4 3 1 1 2 1 2 2 1 1 2 2 1 2 2 3 3 3 3
14 14 14 13 13 15 15 13 10 9 9 11 12 14 15 17 18 19 20 21 21 18 16 14 10 3 1 12 3 5 2 2 1 1 0 2 2 2 1 4 3 2 5 6 4 3 4
13 14 14 14 14 14 15 15 15 13 11 12 13 15 16 17 19 21 22 22 21 18 14 9 3 1 7 4 4 3 1 4 2 1 1 1 2 2 1 3 7 4 5 4 4 5 1
11 12 12 13 14 14 14 14 15 14 15 15 15 17 18 19 21 23 25 23 17 5 4 4 2 1 9 8 1 4 4 3 2 2 3 1 3 3 5 4 5 6 2 3 9 7 3
11 11 12 13 13 14 15 16 16 15 15 16 16 18 20 19 21 25 26 18 8 1 2 3 2 4 5 2 2 1 2 2 1 2 6 6 5 3 4 4 3 2 3 4 6 3 3
9 10 12 13 13 13 14 16 16 16 16 16 15 16 20 22 21 25 13 6 8 6 7 3 2 3 5 6 2 1 1 4 3 8 1 4 5 4 6 6 3 2 3 5 5 4 5
8 7 10 10 12 14 15 15 16 16 16 16 17 17 18 22 21 18 6 7 3 5 11 5 6 7 6 1 5 3 2 4 3 2 1 6 4 6 3 2 3 2 3 7 7 3 4
10 10 10 8 10 12 14 15 16 16 17 17 18 18 19 22 22 4 2 5 5 1 3 9 5 4 6 8 5 5 6 3 3 3 4 5 5 3 2 2 2 2 4 4 5 7 3
9 11 9 6 9 11 13 14 14 15 16 17 16 17 19 25 4 4 2 8 7 2 4 6 3 3 2 5 3 3 5 5 0 6 5 5 4 3 4 4 4 4 3 2 4 5 4
11 9 10 10 11 11 12 13 14 14 14 15 16 16 16 9 4 3 4 9 6 3 4 1 2 1 1 5 2 1 1 2 4 3 5 7 2 2 2 5 4 7 2 2 1 1 4
11 12 10 8 10 10 11 11 13 14 14 15 16 17 14 2 3 4 8 9 3 5 6 1 1 1 3 2 1 2 2 3 2 2 2 7 2 5 7 2 1 2 1 5 4 2 3
11 11 12 10 10 10 11 11 13 14 15 16 17 18 10 3 4 6 7 4 5 4 3 2 3 2 1 3 3 2 2 2 5 3 3 5 4 3 3 3 2 5 7 6 5 4 7
11 12 11 12 10 10 11 11 12 14 15 15 18 18 4 3 5 5 3 5 3 2 5 3 2 2 4 5 3 2 2 2 3 4 2 2 6 6 2 6 6 3 6 6 4 2 6
10 11 12 12 12 10 10 10 12 13 14 15 15 4 3 3 5 2 5 3 7 4 5 6 1 3 3 3 1 2 6 5 6 9 9 4 5 1 2 2 5 3 3 3 1 2 2
10 11 11 11 13 12 10 10 11 13 14 15 4 4 4 7 5 3 5 5 4 3 6 5 3 4 4 2 4 4 5 4 5 11 4 3 3 1 1 1 4 4 5 4 3 3 6
10 10 11 11 10 11 11 10 11 12 13 12 3 4 4 7 1 3 3 6 5 1 8 4 4 4 3 2 5 4 5 4 5 3 5 6 4 3 2 5 9 2 1 4 3 5 4
11 11 12 11 9 8 11 10 11 10 13 7 2 3 4 4 2 2 3 5 4 1 7 5 3 3 2 6 3 4 6 5 2 6 9 7 5 4 11 1 3 4 8 7 7 6 4
10 10 10 11 9 9 8 9 10 8 6 2 2 3 4 3 3 3 6 4 2 3 2 4 4 2 5 3 6 3 3 3 5 1 4 5 4 1 8 5 2 4 5 4 4 4 9
11 11 12 11 12 8 8 7 7 7 2 4 3 4 5 4 2 4 4 5 6 5 4 5 5 4 4 4 7 6 4 6 6 2 2 4 3 7 8 6 5 5 6 7 7 5 4
12 13 11 12 10 10 8 8 8 7 1 4 2 3 1 3 2 3 3 5 6 5 4 6 4 10 10 5 7 1 8 11 8 8 1 3 6 5 7 7 5 7 7 8 10 15 12
15 12 13 14 12 9 9 8 7 7 3 2 2 1 2 2 2 1 1 3 2 4 3 8 5 14 9 4 3 7 12 5 6 9 8 6 5 2 5 8 8 13 14 14 14 16 18
15 15 13 13 14 13 10 8 7 5 4 1 1 1 3 2 1 1 3 3 3 5 2 1 8 10 10 7 12 13 14 15 15 14 6 5 2 2 6 4 9 19 15 20 19 17 10
16 15 15 14 15 13 12 10 10 8 8 3 3 3 2 3 5 4 4 4 6 9 5 8 6 8 4 8 12 12 15 17 17 16 11 7 1 1 5 3 15 5 0 4 16 16 16
17 16 16 17 15 16 12 12 12 11 9 3 2 3 2 4 5 5 8 8 6 4 4 5 9 8 5 7 6 8 6 8 14 17 19 15 9 4 7 8 22 31 24 9 4 9 4
16 16 16 17 17 15 12 13 14 13 11 3 3 3 3 3 8 10 6 7 7 4 4 6 8 7 4 3 4 5 6 6 6 10 12 17 19 13 7 6 15 3 7 9 7 11 15
15 16 16 17 16 14 15 14 15 14 13 4 3 6 3 4 4 4 6 9 5 3 3 4 5 2 2 2 4 5 10 6 11 9 4 4 7 18 19 16 16 6 8 5 3 9 2
16 15 16 15 15 15 15 15 16 15 15 5 3 6 5 4 6 7 9 6 2 4 6 2 4 3 1 3 4 4 5 6 7 13 17 15 5 10 9 15 27 11 4 11 9 16 17
17 15 16 14 14 15 15 15 16 16 15 9 4 3 4 5 4 6 13 8 15 14 4 4 5 3 5 2 3 3 4 1 4 5 3 8 3 3 6 5 13 2 4 11 6 9 12
Wind_Direction
39 26 354 358 344 325 316 318 318 314 320 330 333 331 329 325 325 323 319 316 316 318 317 317 319 329 351 2 253 271 165 351 318 299 31 30 55 40 344 316 311 186 280 246 222 203 245
44 51 49 34 19 12 358 329 320 318 325 330 329 330 322 325 323 320 315 311 312 311 307 310 313 322 359 294 275 296 151 35 272 18 24 51 138 174 247 291 54 302 277 310 263 256 258
30 39 43 40 32 22 15 7 6 348 338 332 335 334 332 326 322 317 315 311 307 303 300 300 302 285 121 234 354 327 289 259 287 151 106 187 152 97 107 316 334 319 321 333 246 214 246
28 27 29 31 28 21 17 14 12 2 355 348 340 336 331 327 323 320 316 311 305 298 287 282 254 225 247 246 295 298 205 306 311 322 296 182 146 126 127 310 10 24 50 357 290 151 225
26 24 24 25 23 18 14 14 12 7 2 352 351 342 334 329 325 322 319 314 315 357 163 164 115 216 271 310 220 253 185 233 320 355 0 46 55 82 26 73 6 10 254 235 310 203 124
25 22 20 21 20 16 12 10 9 7 2 359 354 348 341 333 328 323 322 315 294 94 76 196 274 17 281 252 238 154 161 155 69 353 10 39 43 60 39 74 221 268 307 261 249 258 203
19 22 23 21 18 14 11 7 6 4 2 358 354 351 344 336 334 327 339 15 13 349 26 217 272 259 321 307 325 341 117 95 57 55 348 358 50 236 220 207 197 275 254 267 259 252 207
12 9 21 16 19 18 13 8 4 1 358 357 354 350 344 335 334 325 356 67 57 246 307 259 247 257 251 350 336 288 112 116 105 211 355 13 252 244 267 199 194 240 297 284 283 305 195
12 0 15 9 20 15 11 6 4 1 357 356 353 350 343 334 325 23 10 76 289 290 257 293 222 198 218 145 218 259 136 133 155 172 176 169 244 18 178 298 292 277 220 260 251 321 288
2 355 357 19 20 8 4 0 359 358 356 353 349 349 343 331 52 331 12 333 329 192 26 275 270 257 146 137 257 228 195 142 198 213 183 223 272 241 212 257 143 303 218 265 318 31 282
354 352 357 8 9 5 356 352 353 352 350 347 344 342 342 347 293 337 323 319 309 63 355 128 185 135 56 147 149 356 265 80 199 192 102 254 201 191 212 223 167 229 16 338 353 57 356
352 349 341 346 351 349 346 344 345 346 346 343 338 335 343 347 303 265 325 315 65 41 263 227 47 114 107 343 3 350 84 72 153 220 311 238 276 168 202 121 147 68 347 35 51 80 346
346 345 346 336 334 338 339 338 340 342 344 338 333 326 326 286 260 340 338 22 43 158 338 226 208 145 97 229 255 159 163 178 172 111 301 320 233 199 143 138 33 70 54 325 338 7 226
351 351 349 343 329 326 331 334 334 338 339 332 327 318 302 226 297 334 23 52 183 247 245 294 107 74 184 165 260 198 96 252 224 103 74 218 315 172 200 172 173 158 154 161 271 257 285
339 345 349 346 343 329 328 329 330 335 336 331 331 330 328 304 317 65 69 105 213 221 316 340 115 162 256 241 216 151 210 217 222 168 181 164 278 273 265 145 137 167 186 207 109 29 21
328 332 337 343 343 341 330 330 331 335 336 332 349 343 292 314 336 73 79 240 263 311 343 354 236 178 229 232 170 173 195 209 236 185 155 206 306 19 240 139 12 137 159 56 5 269 276
322 326 329 336 342 343 334 335 335 338 335 337 30 10 265 324 40 69 175 237 286 330 45 0 337 320 279 308 195 207 224 263 221 129 157 158 130 280 59 203 182 128 185 89 132 160 204
318 320 325 326 338 342 342 337 336 341 339 34 22 357 298 323 149 228 199 200 296 3 21 325 317 263 320 45 312 240 230 230 358 153 162 209 154 219 220 245 196 192 190 153 139 232 239
326 325 319 320 330 331 337 339 337 336 27 48 356 279 312 6 218 251 301 289 295 318 84 317 321 27 43 9 348 300 286 322 22 128 174 197 217 335 330 1 4 216 204 183 110 89 199
312 314 314 314 317 324 325 328 333 332 21 79 40 344 322 34 19 355 328 289 254 308 284 236 253 324 305 264 198 272 303 308 358 327 121 143 193 179 196 209 145 205 224 201 177 173 185
302 300 303 301 309 317 324 317 324 319 324 87 43 263 235 313 73 19 15 332 327 330 328 21 321 45 8 310 336 346 357 341 331 340 358 161 222 205 245 236 215 218 210 195 195 229 216
291 289 291 299 299 297 304 306 307 317 90 88 159 176 1 296 310 53 12 309 332 2 5 311 350 349 348 313 6 334 344 317 278 340 343 353 275 226 260 283 240 253 241 237 230 237 250
287 290 285 284 289 297 286 285 281 275 112 143 307 8 105 253 355 87 219 216 313 16 300 252 354 334 324 321 319 298 269 258 257 278 303 282 285 18 280 269 320 277 235 230 241 225 226
290 286 284 279 279 274 277 279 273 255 177 157 205 119 145 248 209 201 227 245 251 265 256 311 310 302 293 316 301 264 252 241 237 245 226 260 279 288 259 31 266 263 296 234 234 245 238
283 279 276 281 276 272 274 272 270 262 224 168 190 168 203 243 214 201 242 257 275 264 252 234 268 230 310 305 314 326 310 280 238 226 226 211 224 251 238 223 275 280 287 275 208 268 265
284 283 275 280 283 284 268 263 268 264 251 136 213 164 212 261 219 226 225 238 246 249 300 241 261 254 202 229 222 246 261 349 287 326 222 206 204 216 218 218 250 353 2 233 256 288 248
277 279 287 281 278 277 273 272 264 258 248 176 229 184 207 253 216 162 211 219 188 180 230 295 284 299 115 202 233 230 246 270 266 269 323 240 218 229 234 239 258 231 273 337 250 256 301
279 282 280 279 281 280 274 272 264 254 247 193 243 185 192 243 226 232 243 215 174 174 213 213 16 272 263 202 213 236 255 238 272 266 247 242 223 228 230 235 248 351 17 244 327 325 9
274 273 274 277 279 281 278 273 265 256 254 224 239 190 209 235 265 214 246 257 220 214 181 213 212 192 231 191 229 278 276 290 329 275 317 283 299 323 288 306 319 9 338 309 278 306 319